Location: Newark
(45.0242°N, 16.0939°E)
Time: 02:06:07
(UTC+00:00)

Envisat - Pass Details

Date: 26 September 2019
Orbit: 764 x 766 km, 98.1° (Epoch: 20 October)

Event Time Altitude Azimuth Distance (km) Brightness Sun altitude
Rises 17:19:32 0° 176° (S) 3,219 6.1 -6.7°
Reaches altitude 10° 17:21:52 10° 181° (S) 2,297 5.4 -7.1°
Maximum altitude 17:26:51 57° 260° (W) 900 3.8 -8.0°
Drops below altitude 10° 17:31:52 10° 339° (NNW) 2,313 5.9 -8.9°
Sets 17:34:14 0° 343° (NNW) 3,244 6.6 -9.3°
